GW2918 Weather Reports


time (UTC)temp
C
wind
direction
speed
KPH
gust
KPH
rain 1hr
cm
rain 24hr
cm
rain mn
cm
humidity
%
barometer
mb
20260510194412 13 182 0.0 4.8 0.00 0.71 0.71 88 1014.9
20260510193409 12 107 4.8 6.4 0.00 0.71 0.71 92 1014.9
20260510192406 12 86 3.2 4.8 0.00 0.71 0.71 93 1015.2
20260510191404 12 123 1.6 4.8 0.00 0.71 0.71 92 1015.0
20260510190359 11 73 3.2 4.8 0.00 0.71 0.71 94 1014.9
20260510185359 11 119 3.2 3.2 0.00 0.71 0.71 98 1015.0
20260510184358 11 47 1.6 3.2 0.00 0.71 0.71 99 1015.2
20260510183354 10 70 4.8 4.8 0.00 0.71 0.71 99 1015.3
20260510182352 10 30 3.2 3.2 0.00 0.71 0.71 99 1015.2
20260510181351 10 48 6.4 6.4 0.00 0.71 0.71 99 1015.0
20260510180350 10 28 3.2 4.8 0.00 0.71 0.71 99 1015.0
20260510175348 10 38 3.2 4.8 0.00 0.71 0.71 99 1015.2
20260510174348 10 47 4.8 6.4 0.00 0.71 0.71 99 1015.1
20260510173346 10 50 1.6 3.2 0.00 0.71 0.71 99 1015.3
20260510172344 10 87 3.2 8.0 0.18 0.71 0.71 99 1015.1
20260510171344 10 29 4.8 8.0 0.23 0.66 0.66 99 1015.2
20260510170343 10 5 8.0 8.0 0.30 0.64 0.64 99 1015.2
20260510165341 10 17 4.8 9.7 0.30 0.56 0.56 99 1015.0
20260510164335 10 5 6.4 9.7 1.19 0.51 0.51 99 1014.8
20260510163331 10 9 6.4 8.0 0.53 0.28 0.28 99 1014.7
20260510162329 10 329 6.4 9.7 0.53 0.18 0.18 99 1014.9
20260510161326 10 4 4.8 11.3 0.36 0.10 0.10 98 1014.7
20260510160326 11 1 12.9 27.4 0.00 0.05 0.05 94 1014.4
20260510155323 13 11 11.3 14.5 0.00 0.05 0.05 85 1014.1
20260510154321 13 186 3.2 9.7 0.00 0.05 0.05 82 1013.8
20260510153318 14 214 8.0 14.5 0.00 0.05 0.05 83 1013.7
20260510152317 14 144 9.7 14.5 0.00 0.05 0.05 82 1013.7
20260510151312 15 197 4.8 8.0 0.00 0.05 0.05 79 1013.6
20260510150309 14 201 9.7 16.1 0.00 0.05 0.05 83 1013.6
20260510145308 14 210 14.5 20.9 0.00 0.05 0.05 87 1013.6
20260510144307 14 195 4.8 9.7 0.00 0.05 0.05 85 1013.7
20260510143303 13 201 6.4 9.7 0.00 0.05 0.05 89 1013.8
20260510142305 13 220 8.0 14.5 0.00 0.05 0.05 88 1013.8
20260510141257 12 24 4.8 9.7 0.00 0.05 0.05 93 1013.7
20260510140256 12 194 6.4 6.4 0.00 0.05 0.05 91 1013.5
20260510135251 12 38 1.6 4.8 0.00 0.05 0.05 92 1013.3
20260510134246 11 210 3.2 9.7 0.00 0.05 0.05 93 1013.2
20260510133244 11 235 1.6 8.0 0.00 0.05 0.05 94 1013.4
20260510132244 11 138 3.2 9.7 0.00 0.05 0.05 95 1013.3
20260510131238 11 227 6.4 9.7 0.00 0.05 0.05 95 1013.3
20260510130237 11 199 3.2 4.8 0.00 0.05 0.05 95 1013.2
20260510125236 11 225 4.8 8.0 0.00 0.05 0.05 96 1013.2
20260510124230 10 230 0.0 6.4 0.00 0.05 0.05 96 1013.1
20260510123227 10 156 1.6 6.4 0.00 0.05 0.05 96 1013.4
20260510122226 10 33 1.6 3.2 0.00 0.05 0.05 96 1013.3
20260510121226 10 92 0.0 3.2 0.00 0.05 0.05 96 1013.1
20260510120225 10 211 6.4 8.0 0.00 0.05 0.05 95 1012.8
20260510115225 10 33 1.6 4.8 0.00 0.05 0.05 95 1012.5
20260510114224 10 190 3.2 3.2 0.00 0.05 0.05 96 1012.4
20260510113222 10 108 1.6 3.2 0.00 0.05 0.05 97 1012.5
20260510112221 10 123 1.6 3.2 0.00 0.05 0.05 98 1012.3
20260510111220 10 196 4.8 4.8 0.00 0.05 0.05 97 1011.9
20260510110218 10 222 3.2 8.0 0.00 0.05 0.05 96 1011.5
20260510105217 10 184 3.2 8.0 0.00 0.05 0.05 96 1011.6
20260510104217 10 177 1.6 6.4 0.00 0.05 0.05 95 1011.2
20260510103217 10 207 4.8 9.7 0.00 0.05 0.05 94 1011.1
20260510102212 10 156 3.2 11.3 0.00 0.05 0.05 95 1011.0
20260510101209 9 216 4.8 11.3 0.00 0.05 0.05 95 1010.9
20260510100208 9 183 6.4 8.0 0.00 0.05 0.05 96 1010.7
20260510095205 9 193 8.0 16.1 0.00 0.05 0.05 96 1010.7
20260510094159 9 190 4.8 16.1 0.00 0.05 0.05 97 1010.7
20260510093158 9 198 8.0 9.7 0.00 0.05 0.05 96 1010.5
20260510092156 9 166 3.2 4.8 0.00 0.05 0.05 96 1010.5
20260510091154 9 235 3.2 9.7 0.00 0.05 0.05 95 1010.5
20260510090154 10 162 3.2 11.3 0.00 0.05 0.05 95 1010.5
20260510085150 10 113 1.6 9.7 0.00 0.05 0.05 95 1010.5
20260510084149 10 278 3.2 6.4 0.00 0.05 0.05 95 1010.7
20260510083148 9 17 3.2 4.8 0.00 0.05 0.05 96 1010.3
20260510082146 9 234 4.8 6.4 0.00 0.05 0.05 96 1010.1
20260510081143 9 72 3.2 6.4 0.00 0.05 0.05 97 1010.0
20260510080139 8 30 3.2 3.2 0.00 0.05 0.05 97 1010.3
20260510075134 8 354 0.0 4.8 0.00 0.05 0.05 98 1010.0
20260510074132 8 330 3.2 4.8 0.00 0.05 0.05 99 1010.3
20260510073131 9 265 0.0 4.8 0.00 0.05 0.05 97 1010.0
20260510072130 9 8 3.2 3.2 0.00 0.05 0.05 98 1009.9
20260510071130 9 10 3.2 3.2 0.00 0.05 0.05 98 1009.7
20260510070124 9 298 0.0 6.4 0.00 0.05 0.05 96 1009.7
20260510065122 9 41 3.2 4.8 0.00 0.05 0.05 97 1009.8
20260510064121 9 2 3.2 4.8 0.00 0.05 0.05 97 1010.1
20260510063120 9 225 1.6 4.8 0.00 0.05 0.05 97 1009.9
20260510062118 9 21 1.6 4.8 0.00 0.05 0.05 98 1010.3
20260510061117 9 47 3.2 4.8 0.00 0.05 0.05 99 1010.3
20260510060116 9 20 0.0 4.8 0.00 0.05 0.05 99 1010.4
20260510055116 9 91 3.2 4.8 0.00 0.05 0.05 99 1010.6
20260510054112 9 54 4.8 6.4 0.00 0.05 0.05 99 1010.7
20260510053109 9 314 0.0 4.8 0.05 0.05 0.05 99 1011.2
20260510052108 9 359 1.6 4.8 0.00 0.03 0.03 98 1011.4
20260510051106 9 4 0.0 4.8 0.00 0.03 0.03 99 1011.4
20260510050106 10 292 3.2 4.8 0.00 0.03 0.03 99 1011.5
20260510045105 10 333 4.8 6.4 0.00 0.03 0.03 98 1011.4
20260510044104 10 4 3.2 8.0 0.18 0.03 0.03 98 1011.4
20260510043102 10 199 3.2 11.3 0.00 0.00 0.00 98 1011.8
20260510042102 10 308 3.2 6.4 0.00 0.00 0.00 99 1011.6
20260510041102 10 305 3.2 8.0 0.00 0.00 0.00 99 1010.8
20260510035057 10 215 12.9 14.5 0.00 0.89 0.89 99 1010.5
20260510034052 10 212 6.4 11.3 0.00 0.89 0.89 99 1010.3
20260510033052 10 298 6.4 9.7 0.00 0.89 0.89 99 1010.0
20260510032050 10 265 3.2 8.0 0.00 0.89 0.89 99 1010.0
20260510031046 10 244 4.8 14.5 0.00 0.89 0.89 98 1009.8
20260510030045 10 314 1.6 16.1 0.00 0.89 0.89 98 1009.7
20260510025045 10 188 3.2 12.9 0.00 0.89 0.89 98 1009.2
20260510024044 10 251 6.4 9.7 0.00 0.89 0.89 98 1009.5
20260510023044 10 238 4.8 17.7 0.00 0.89 0.89 97 1009.6
20260510022043 10 180 1.6 6.4 0.00 0.89 0.89 97 1009.5
20260510021044 10 261 3.2 11.3 0.00 0.89 0.89 97 1009.5
20260510020040 10 233 4.8 9.7 0.00 0.89 0.89 98 1009.3
20260510015037 10 192 4.8 8.0 0.00 0.89 0.89 98 1009.4
20260510014037 10 161 1.6 12.9 0.00 0.89 0.89 98 1009.3
20260510013033 10 358 3.2 16.1 0.00 0.89 0.89 99 1009.2
20260510012030 10 9 3.2 9.7 0.00 0.89 0.89 99 1009.2
20260510011026 10 298 1.6 6.4 0.00 0.89 0.89 99 1009.0
20260510010026 10 213 6.4 6.4 0.00 0.89 0.89 99 1009.0
20260510005025 10 16 3.2 9.7 0.00 0.89 0.89 99 1009.1
20260510004020 10 84 3.2 8.0 0.00 0.89 0.89 99 1008.9
20260510003018 10 207 3.2 8.0 0.00 0.89 0.89 98 1008.7
20260510002017 10 297 3.2 8.0 0.00 0.89 0.89 98 1008.6
20260510001012 10 39 0.0 6.4 0.00 0.89 0.89 98 1008.5
20260510000009 10 112 4.8 6.4 0.00 0.89 0.89 98 1008.3
20260509235009 10 142 4.8 6.4 0.00 0.89 0.89 98 1008.5
20260509234003 10 244 3.2 11.3 0.00 0.89 0.89 97 1008.6
20260509233002 10 259 3.2 9.7 0.00 0.89 0.89 97 1008.7
20260509232002 10 256 4.8 9.7 0.00 0.89 0.89 96 1008.3
20260509230956 11 206 4.8 11.3 0.00 0.89 0.89 95 1007.9
20260509225955 11 215 1.6 14.5 0.00 0.89 0.89 95 1008.0
20260509224953 11 155 3.2 8.0 0.00 0.89 0.89 96 1008.3
20260509223952 11 141 3.2 8.0 0.00 0.89 0.89 96 1008.1
20260509222952 11 157 3.2 6.4 0.00 0.89 0.89 95 1008.1
20260509221949 11 217 3.2 11.3 0.00 0.89 0.89 95 1008.6
20260509220946 11 211 3.2 9.7 0.00 0.89 0.89 95 1008.6
20260509215945 11 112 3.2 9.7 0.00 0.89 0.89 95 1008.6
20260509214944 11 218 6.4 9.7 0.00 0.89 0.89 96 1008.5
20260509213943 11 173 3.2 9.7 0.00 0.89 0.89 95 1008.4
20260509212942 11 183 3.2 9.7 0.00 0.89 0.89 95 1008.6
20260509211941 11 201 4.8 12.9 0.00 0.89 0.89 96 1008.8
20260509210939 11 225 4.8 8.0 0.00 0.89 0.89 97 1008.9
20260509205938 10 32 3.2 8.0 0.00 0.89 0.89 98 1008.8
20260509204935 10 258 3.2 9.7 0.00 0.89 0.89 98 1008.8
20260509203934 10 180 3.2 17.7 0.00 0.89 0.89 98 1008.8
20260509202932 10 163 3.2 17.7 0.00 0.89 0.89 99 1008.9
20260509201930 10 208 4.8 19.3 0.00 0.89 0.89 99 1008.8
20260509200928 10 214 9.7 24.1 0.00 0.89 0.89 99 1008.8
20260509195925 10 221 9.7 17.7 0.00 0.89 0.89 99 1009.0